x

Sheboygan, Wi (sgnw3) Weather Station

7:00am - Sun 28th May 2017 All times are CDT. -5 hours from GMT.

  • Wind
    7mph, 7mph gusts
  • Air Temp 51°f
  • Sea Pressure 1006.4mb
  • Sheboygan, Wi
  • Sheboygan, Wi

More Historic Weather Station data

Upgrade to MSW Pro to gain access to the past 30 days of data for over 8000 Wavebouys and Weather Stations around the globe.

Join Pro

Comparision Forecast

View Surf forecast
   
Sun 05/28 7:00am 7 7 mph 1006.4mb 51f
6:00am 3 5 mph 1006.5mb 55f
5:00am 3 3 mph 1007.1mb 60f
4:00am 8 9 mph 1008.2mb 61f
3:00am 1 2 mph 1007.9mb 58f
2:00am 5 6 mph 1008.9mb 64f
1:00am 7 7 mph 1008.9mb 64f
12:00am 8 9 mph 1009.6mb 64f
Sat 05/27 11:00pm 7 8 mph 1010mb 62f
10:00pm 8 9 mph 1009.9mb 60f
9:00pm 10 11 mph 1010.2mb 61f
8:00pm 8 10 mph 1010.7mb 60f
7:00pm 18 20 mph 1010.3mb 58f
6:00pm 21 22 mph 1011.2mb 61f
5:00pm 15 16 mph 1010.8mb 56f
4:00pm 17 17 mph 1011.4mb 56f
3:00pm 13 13 mph 1012mb 52f
2:00pm 14 15 mph 1012.3mb 53f
1:00pm 17 18 mph 1012.8mb 54f
12:00pm 17 17 mph 1012.7mb 56f
11:00am 14 15 mph 1012.5mb 51f
10:00am 8 8 mph 1012.5mb 52f
9:00am 5 5 mph 1012.7mb 52f
8:00am 6 6 mph 1012.7mb 54f
7:00am  -  1 mph 1013.1mb 55f
6:00am 3 5 mph 1012.4mb 53f
5:00am 3 3 mph 1011.9mb 52f
4:00am 2 2 mph 1011.6mb 53f
3:00am 2 2 mph 1011.8mb 53f
2:00am 6 6 mph 1011.8mb 52f
1:00am 6 6 mph 1011.7mb 50f
12:00am 6 6 mph 1011.7mb 51f
Fri 05/26 11:00pm 6 6 mph 1011.5mb 56f
10:00pm 5 5 mph 1011.6mb 54f
9:00pm 5 5 mph 1011.2mb 54f
8:00pm 2 3 mph 1010.5mb 49f
7:00pm 10 10 mph 1010.5mb 51f
6:00pm 11 13 mph 1010.8mb 51f
5:00pm 10 10 mph 1010.7mb 56f
4:00pm 11 11 mph 1010.8mb 55f
3:00pm 7 8 mph 1011.1mb 49f
2:00pm 5 6 mph 1011.1mb 48f
1:00pm 2 2 mph 1010.9mb 47f
12:00pm 5 6 mph 1011.4mb 47f
11:00am 5 5 mph 1011.7mb 48f
10:00am 7 7 mph 1011.3mb 47f
9:00am 7 8 mph 1011.3mb 48f
8:00am 6 6 mph 1011.3mb 48f
7:00am 3 3 mph 1011.2mb 49f
6:00am 8 9 mph 1010.8mb 49f
5:00am 5 5 mph 1009.9mb 52f
4:00am 5 5 mph 1009.7mb 52f
3:00am 6 7 mph 1009.2mb 53f
2:00am 9 9 mph 1008.3mb 53f
1:00am 9 10 mph 1008.5mb 53f
12:00am 11 13 mph 1008.3mb 53f
Thu 05/25 11:00pm 13 14 mph 1007.9mb 54f
10:00pm 9 10 mph 1007.4mb 54f
9:00pm 9 10 mph 1006.3mb 54f
8:00pm 11 13 mph 1005.9mb 56f
7:00pm 13 14 mph 1005mb 54f
6:00pm 14 15 mph 1004.9mb 53f
5:00pm 11 14 mph 1004.6mb 50f
4:00pm 16 18 mph 1004.5mb 50f
3:00pm 17 20 mph 1004.6mb 49f
2:00pm 22 24 mph 1004.2mb 50f
1:00pm 22 24 mph 1004.1mb 50f
12:00pm 22 24 mph 1004.1mb 50f
11:00am 16 17 mph 1004.1mb 50f
10:00am 18 21 mph 1004mb 51f
9:00am 16 18 mph 1004.3mb 50f
8:00am 17 20 mph 1003.7mb 50f
7:00am 17 20 mph 1003.4mb 49f
6:00am 17 21 mph 1003.2mb 49f
5:00am 21 24 mph 1002.8mb 49f
4:00am 23 25 mph 1002.7mb 49f
3:00am 23 26 mph 1002.7mb 48f
2:00am 23 26 mph 1003mb 50f
1:00am 21 23 mph 1003.2mb 50f
12:00am 22 25 mph 1003.3mb 49f
Wed 05/24 11:00pm 21 23 mph 1003.3mb 49f
10:00pm 21 23 mph 1003.4mb 50f
9:00pm 23 25 mph 1003.4mb 50f
8:00pm 21 23 mph 1003.6mb 50f
7:00pm 24 26 mph 1003.6mb 50f
6:00pm 24 28 mph 1003.6mb 49f
5:00pm 23 25 mph 1003.3mb 50f
4:00pm 23 25 mph 1003.2mb 49f
3:00pm 21 23 mph 1003.5mb 48f
2:00pm 22 23 mph 1004mb 46f